Torna al catalogo

STARLINK-3724

AttivoComunicazioniVLEO
NORAD 52305·PAYLOAD·🇺🇸 United States

Lanciato Apr 21, 2022 da Cape Canaveral Space Force Station

Loading…

Prossimi Passaggi (prossime 24 ore)

TLE

AggiornatoSource: CelesTrak SupGP

Epoca: Sep 14, 2026, 21:55 UTC

1 52305C 22041AW  26257.91368056 -.00006740  00000+0 -20459-3 0  2572
2 52305  53.1584 317.9258 0001209  90.7683 272.5745 15.33541797    11

Traccia STARLINK-3724 in tempo reale con AllMySat

Download on the App Store